Flag for U.S.A. Weather past 2 weeks in Bakersfield, California, U.S.A.

Now
77 °F

Sunny.


Feels Like: 76 °F
Forecast: 56 / 86 °F
Wind: 8 mph from North

Location: Meadows Field

Current Time: Apr 17, 2015 at 9:21:02 PM

Latest Report: Apr 17, 2015 at 7:54 PM


Visibility: 10 mi

Pressure: 29.94 "Hg

Humidity: 14%

Dew point: 25 °F

Location of BakersfieldLocation

Historic Weather in Bakersfield — Graph

°F

Bakersfield temperature yesterday

Maximum temperature yesterday: 83 °F (at 4:54 PM)
Minimum temperature yesterday: 50 °F (at 4:54 AM)
Average temperature yesterday: 68 °F

Past Weeks' High & Low Weather Summary

 TemperatureHumidityPressure
High89 °F (Apr 13, 4:54 PM)89% (Apr 8, 6:54 AM)30.26 "Hg (Apr 8, 6:54 AM)
Low44 °F (Apr 8, 6:54 AM)5% (Apr 16, 12:54 PM)29.79 "Hg (Apr 5, 6:54 PM)
Average62 °F37%30.00 "Hg
* Reported Apr 2 7:54 PM — Apr 17 7:54 PM, Bakersfield, Weather by CustomWeather, © 2015

Note: Actual official high and low records may vary slightly from our data, if they occured in-between our weather recording intervals... More about our weather records

Advertising

Bakersfield weather history for previous 24 hours

 ConditionsComfort  
Time TempWeatherWind HumidityBarometerVisibility
7:54 PM
Fri, Apr 17
77 °FSunny.8 mph14%29.94 "Hg10 mi
6:54 PM81 °FSunny.8 mph13%29.93 "Hg10 mi
5:54 PM83 °FSunny.14 mph11%29.93 "Hg10 mi
4:54 PM84 °FSunny.10 mph8%29.94 "Hg10 mi
3:54 PM85 °FSunny.7 mph10%29.96 "Hg10 mi
2:54 PM84 °FSunny.10 mph11%29.98 "Hg10 mi
1:54 PM82 °FSunny.7 mph11%30.00 "Hg10 mi
12:54 PM80 °FSunny.6 mph14%30.03 "Hg10 mi
11:54 AM77 °FSunny.N/A14%30.05 "Hg10 mi
10:54 AM76 °FSunny.5 mph13%30.06 "Hg10 mi
9:54 AM73 °FSunny.3 mph12%30.07 "Hg10 mi
8:54 AM67 °FSunny.5 mph16%30.07 "Hg10 mi
7:54 AM62 °FSunny.3 mph22%30.07 "Hg10 mi
6:54 AM54 °FClear.3 mph30%30.06 "Hg10 mi
5:54 AM61 °FClear.8 mph20%30.04 "Hg10 mi
4:54 AM61 °FClear.6 mph20%30.04 "Hg10 mi
3:54 AM56 °FClear.8 mph24%30.05 "Hg10 mi
2:54 AM59 °FClear.6 mph24%30.04 "Hg10 mi
1:54 AM62 °FClear.3 mph24%30.05 "Hg10 mi
12:54 AM62 °FClear.5 mph21%30.05 "Hg10 mi
11:54 PM
Thu, Apr 16
63 °FClear.9 mph22%30.03 "Hg10 mi
10:54 PM64 °FClear.10 mph23%30.02 "Hg10 mi
9:54 PM64 °FClear.6 mph18%30.00 "Hg10 mi
Weather by CustomWeather, © 2015

See weather overviewHow to use our weather pages